Terminal Aerodrome Forecast
Issued by NWS Omaha/Valley, NE

Home | Current Version | Previous Version | Graphics & Text | Print | Product List | Glossary On
Versions: 1 2 3 4 5 6 7 8 9 10 11 12 13 14 15 16 17 18
000
FTUS43 KOAX 222320
TAFOFK
TAF
KOFK 222320Z 2300/2324 18018G26KT P6SM FEW250
     FM230500 18014G22KT P6SM FEW250 WS020/19045KT
     FM231000 18011KT P6SM SCT200 WS020/21040KT
     FM231200 18011KT P6SM BKN200
     FM231600 17015G23KT P6SM BKN090=

USA.gov is the U.S. government's official web portal to all federal, state and local government web resources and services.